[[{"header":{"parameterUnit":"m.s-1","parameterCategory":1,"la1":30.2991,"la2":30.254,"lo1":-89.0895,"lo2":-89.0444,"dy":0.0017,"dx":0.0017,"nx":28,"ny":28,"refTime":"2025-09-04T21:00:00:Z","depth":0,"parameterNumber":2,"parameterNumberName":"U-component_of_WINDS"},"data":[0,0,0,0,0,0,0,0,0,0,0,0,0,0,0,0,0,0,0,0,0,0,0,0,0,0,0,0,0,0,0,0,0,0,0,0,0,0,0,0,0,0,0,0,0,0,0,0,0,0,0,0,0,0,0,0,0,0,-0.0785,-0.0786,0,-0.0886,-0.0887,-0.0889,-0.0923,-0.0922,-0.0922,-0.0921,-0.1029,-0.1032,-0.1035,0,0,0,0,0,0,0,0,0,0,0,0,0,-0.0626,-0.0629,-0.0785,-0.0786,-0.0788,-0.0886,-0.0887,-0.0889,-0.0923,-0.0922,-0.0922,-0.0921,-0.1028,-0.1032,-0.1036,0,0,0,0,0,0,0,0,0,0,0,0,0,-0.0708,-0.063,-0.0785,-0.0816,-0.082,-0.0886,-0.0888,-0.0889,-0.0923,-0.0922,-0.0921,-0.0921,-0.1027,-0.1031,-0.1036,-0.108,0,0,-0.1051,-0.1053,0,0,0,0,0,0,0,0,-0.0703,-0.0714,-0.081,-0.0814,-0.0818,-0.0891,-0.0871,-0.0953,-0.0923,-0.0884,-0.0921,-0.092,-0.0984,-0.0992,-0.1013,-0.1085,-0.1089,-0.1052,-0.1055,-0.1057,-0.1058,0,0,0,0,0,0,0,-0.0698,-0.071,-0.0825,-0.0812,-0.0817,-0.0827,-0.0838,-0.0887,-0.0936,-0.0887,-0.089,-0.0901,-0.0986,-0.1008,-0.1016,-0.1091,-0.1052,-0.1056,-0.1059,-0.1061,-0.1206,-0.1207,0,0,0,0,0,0,-0.0686,-0.0705,-0.0822,-0.0828,-0.0758,-0.083,-0.0842,-0.0868,-0.0936,-0.0946,-0.0902,-0.0902,-0.1,-0.101,-0.102,-0.1076,-0.1057,-0.1061,-0.1064,-0.1205,-0.1206,-0.1207,0,0,0,0,0,0,-0.0682,-0.0696,-0.0818,-0.0767,-0.0784,-0.0834,-0.0863,-0.0871,-0.0893,-0.0947,-0.0956,-0.0915,-0.1,-0.1013,-0.1065,-0.1081,-0.1064,-0.1068,-0.1204,-0.1205,-0.1207,-0.1189,0,0,0,0,0,0,-0.0678,-0.0695,-0.071,-0.0767,-0.0786,-0.086,-0.0864,-0.0873,-0.0901,-0.0903,-0.0962,-0.0971,-0.1,-0.1057,-0.107,-0.1087,-0.1072,-0.1203,-0.1205,-0.1206,-0.1189,-0.119,-0.1191,0,0,0,0,0,-0.0672,-0.0702,-0.0711,-0.0725,-0.0806,-0.0861,-0.0872,-0.0904,-0.0902,-0.0919,-0.0954,-0.0969,-0.1076,-0.1062,-0.1076,-0.1096,-0.1202,-0.1204,-0.1206,-0.1188,-0.119,-0.1191,0,0,0,0,0,0,-0.0647,-0.071,-0.0721,-0.077,-0.0809,-0.0866,-0.0889,-0.0904,-0.0946,-0.0946,-0.0986,-0.0999,-0.1049,-0.1077,-0.106,-0.1142,-0.114,-0.1145,-0.1122,-0.1124,-0.1125,-0.1117,-0.1076,0,0,0,0,0,-0.0646,-0.0683,-0.0737,-0.0776,-0.0795,-0.0838,-0.0863,-0.0884,-0.0928,-0.0945,-0.0984,-0.1027,-0.107,-0.1098,-0.1141,-0.1193,-0.1207,-0.1213,-0.1214,-0.1215,-0.1219,-0.125,-0.1254,-0.1214,-0.1214,-0.1214,0,0,-0.0647,-0.0686,-0.0707,-0.0771,-0.0805,-0.0844,-0.0852,-0.0893,-0.0923,-0.0952,-0.1003,-0.1033,-0.1084,-0.1136,-0.1161,-0.1162,-0.1233,-0.1217,-0.1217,-0.1222,-0.1253,-0.1257,-0.126,-0.1215,-0.1215,-0.1215,0,0,-0.0669,-0.0701,-0.0737,-0.077,-0.082,-0.0849,-0.0858,-0.0913,-0.0933,-0.0985,-0.1008,-0.1045,-0.1119,-0.1155,-0.1182,-0.1218,-0.1235,-0.1231,-0.1238,-0.1268,-0.1271,-0.1274,-0.1289,-0.1294,-0.1235,-0.1235,-0.1235,0,-0.0664,-0.0722,-0.0754,-0.0794,-0.0823,-0.0849,-0.0887,-0.0918,-0.098,-0.1,-0.0999,-0.1094,-0.1129,-0.1191,-0.12,-0.1221,-0.1234,-0.1225,-0.1268,-0.1271,-0.1275,-0.1289,-0.1294,-0.1235,-0.1235,-0.1235,-0.1235,0,-0.0715,-0.0755,-0.0778,-0.0837,-0.0868,-0.0906,-0.0946,-0.0974,-0.0993,-0.1022,-0.1076,-0.112,-0.1173,-0.1189,-0.1208,-0.1255,-0.1254,-0.126,-0.1259,-0.1277,-0.1292,-0.1297,-0.1234,-0.1234,-0.1234,-0.1234,0,0,-0.0723,-0.0799,-0.0807,-0.0835,-0.0892,-0.0925,-0.0966,-0.1017,-0.1041,-0.1083,-0.112,-0.1182,-0.1188,-0.122,-0.1243,-0.1269,-0.1298,-0.1273,-0.1275,-0.1277,-0.1354,-0.135,-0.1356,-0.1308,-0.1309,-0.131,-0.135,0,-0.0754,-0.0826,-0.0857,-0.0916,-0.0955,-0.0981,-0.1017,-0.1057,-0.1086,-0.1125,-0.1158,-0.1202,-0.1206,-0.1225,-0.1252,-0.1288,-0.1314,-0.1286,-0.1345,-0.1347,-0.1333,-0.1363,-0.1359,-0.1394,-0.1356,-0.1357,-0.1357,0,-0.0799,-0.084,-0.0903,-0.0957,-0.0975,-0.1006,-0.1056,-0.1092,-0.1139,-0.1158,-0.1194,-0.1216,-0.1262,-0.1257,-0.1322,-0.1303,-0.1329,-0.135,-0.1353,-0.1361,-0.1354,-0.1374,-0.1406,-0.1412,-0.1366,-0.1366,-0.1365,0,-0.0801,-0.0873,-0.092,-0.0942,-0.1006,-0.1028,-0.1056,-0.1102,-0.1131,-0.1175,-0.1195,-0.1244,-0.1272,-0.131,-0.1346,-0.1339,-0.1409,-0.1406,-0.1428,-0.1427,-0.1443,-0.1442,-0.1482,-0.1457,-0.1457,-0.1457,-0.1456,0,-0.0832,-0.087,-0.0922,-0.0951,-0.0995,-0.1031,-0.1074,-0.1104,-0.1145,-0.1182,-0.1208,-0.1242,-0.1287,-0.1328,-0.1356,-0.1407,-0.1419,-0.1437,-0.1445,-0.1436,-0.1434,-0.1455,-0.1454,-0.1458,-0.1458,-0.1457,-0.1457,0,-0.0843,-0.0879,-0.0932,-0.0988,-0.1003,-0.1033,-0.1082,-0.1113,-0.1143,-0.119,-0.1203,-0.1251,-0.13,-0.1339,-0.1404,-0.1423,-0.1478,-0.1485,-0.1462,-0.1466,-0.1486,-0.1484,-0.1543,-0.1553,-0.1519,-0.1519,-0.1519,0,-0.0861,-0.0891,-0.095,-0.0976,-0.1003,-0.1045,-0.1075,-0.1111,-0.1142,-0.1198,-0.1222,-0.1273,-0.1316,-0.1395,-0.1437,-0.1487,-0.1497,-0.1514,-0.1505,-0.1496,-0.15,-0.1498,-0.1502,-0.1515,-0.1516,-0.1516,-0.1516,0,-0.0891,-0.0907,-0.0948,-0.0996,-0.1031,-0.1071,-0.1111,-0.1131,-0.1176,-0.1209,-0.1259,-0.1292,-0.1359,-0.141,-0.1465,-0.1496,-0.1514,-0.1518,-0.1526,-0.1519,-0.1504,-0.1514,-0.1466,-0.1517,-0.1517,-0.1517,-0.1517,-0.1517,-0.0908,-0.0936,-0.0982,-0.1028,-0.1062,-0.1099,-0.1131,-0.1165,-0.1207,-0.1263,-0.1282,-0.1335,-0.1383,-0.1458,-0.1489,-0.1532,-0.1534,-0.1545,-0.1548,-0.1551,-0.1551,-0.1496,-0.1542,-0.1542,-0.1542,-0.1542,-0.1542,0,-0.094,-0.0971,-0.1013,-0.1068,-0.1105,-0.1117,-0.1163,-0.1193,-0.1238,-0.1281,-0.1322,-0.1381,-0.1432,-0.1477,-0.153,-0.1556,-0.1566,-0.1569,-0.1568,-0.1575,-0.1546,-0.1534,-0.156,-0.156,-0.156,-0.156,-0.156,-0.156,-0.0962,-0.1011,-0.1033,-0.11,-0.1132,-0.1182,-0.1207,-0.1243,-0.1277,-0.1342,-0.1383,-0.1412,-0.1456,-0.1513,-0.156,-0.1573,-0.1592,-0.1593,-0.1608,-0.1579,-0.1577,-0.1575,-0.1565,-0.1596,-0.1596,-0.1634,-0.1634,-0.1635]},{"header":{"parameterUnit":"m.s-1","parameterCategory":1,"la1":30.2991,"la2":30.254,"lo1":-89.0895,"lo2":-89.0444,"dy":0.0017,"dx":0.0017,"nx":28,"ny":28,"refTime":"2025-09-04T21:00:00:Z","depth":0,"parameterNumber":3,"parameterNumberName":"V-component_of_WINDS"},"data":[0,0,0,0,0,0,0,0,0,0,0,0,0,0,0,0,0,0,0,0,0,0,0,0,0,0,0,0,0,0,0,0,0,0,0,0,0,0,0,0,0,0,0,0,0,0,0,0,0,0,0,0,0,0,0,0,0,0,-1.2234,-1.2234,0,-1.2231,-1.2231,-1.2231,-1.2229,-1.2229,-1.2229,-1.2229,-1.2226,-1.2226,-1.2226,0,0,0,0,0,0,0,0,0,0,0,0,0,-1.2238,-1.2238,-1.2234,-1.2234,-1.2234,-1.2231,-1.2231,-1.2231,-1.2229,-1.2229,-1.2229,-1.2229,-1.2226,-1.2226,-1.2226,0,0,0,0,0,0,0,0,0,0,0,0,0,-1.2236,-1.2238,-1.2234,-1.2233,-1.2232,-1.2231,-1.2231,-1.2231,-1.2229,-1.2229,-1.2229,-1.2229,-1.2226,-1.2226,-1.2226,-1.2225,0,0,-1.2225,-1.2225,0,0,0,0,0,0,0,0,-1.2236,-1.2236,-1.2233,-1.2233,-1.2233,-1.223,-1.2231,-1.2229,-1.2229,-1.223,-1.2229,-1.2229,-1.2227,-1.2227,-1.2227,-1.2225,-1.2225,-1.2225,-1.2225,-1.2225,-1.2225,0,0,0,0,0,0,0,-1.2236,-1.2236,-1.2233,-1.2233,-1.2233,-1.2232,-1.2232,-1.2231,-1.2229,-1.223,-1.223,-1.223,-1.2227,-1.2227,-1.2227,-1.2225,-1.2225,-1.2225,-1.2225,-1.2225,-1.2224,-1.2224,0,0,0,0,0,0,-1.2237,-1.2236,-1.2233,-1.2233,-1.2234,-1.2232,-1.2232,-1.2231,-1.2229,-1.2229,-1.223,-1.223,-1.2227,-1.2227,-1.2226,-1.2226,-1.2225,-1.2225,-1.2225,-1.2224,-1.2224,-1.2224,0,0,0,0,0,0,-1.2237,-1.2236,-1.2233,-1.2234,-1.2234,-1.2232,-1.2231,-1.2231,-1.2231,-1.2229,-1.2228,-1.223,-1.2227,-1.2227,-1.2226,-1.2226,-1.2225,-1.2225,-1.2224,-1.2224,-1.2224,-1.2226,0,0,0,0,0,0,-1.2237,-1.2236,-1.2236,-1.2234,-1.2234,-1.2232,-1.2231,-1.2231,-1.223,-1.223,-1.2228,-1.2228,-1.2227,-1.2226,-1.2226,-1.2226,-1.2225,-1.2224,-1.2224,-1.2224,-1.2226,-1.2226,-1.2226,0,0,0,0,0,-1.2237,-1.2236,-1.2236,-1.2236,-1.2233,-1.2232,-1.2232,-1.2231,-1.223,-1.223,-1.2229,-1.2228,-1.2226,-1.2226,-1.2226,-1.2226,-1.2224,-1.2224,-1.2224,-1.2226,-1.2226,-1.2226,0,0,0,0,0,0,-1.2237,-1.2236,-1.2236,-1.2234,-1.2233,-1.2232,-1.2231,-1.2231,-1.223,-1.223,-1.2228,-1.2228,-1.2228,-1.2227,-1.2226,-1.2226,-1.2225,-1.2225,-1.2226,-1.2227,-1.2227,-1.2227,-1.2225,0,0,0,0,0,-1.2237,-1.2236,-1.2235,-1.2234,-1.2234,-1.2233,-1.2232,-1.2232,-1.2231,-1.223,-1.2229,-1.2228,-1.2228,-1.2227,-1.2226,-1.2226,-1.2226,-1.2226,-1.2226,-1.2226,-1.2226,-1.2227,-1.2227,-1.2225,-1.2225,-1.2225,0,0,-1.2237,-1.2236,-1.2235,-1.2234,-1.2233,-1.2233,-1.2232,-1.2231,-1.2231,-1.223,-1.2229,-1.2229,-1.2228,-1.2227,-1.2227,-1.2227,-1.2227,-1.2227,-1.2227,-1.2226,-1.2227,-1.2227,-1.2227,-1.2225,-1.2225,-1.2225,0,0,-1.2236,-1.2235,-1.2235,-1.2234,-1.2233,-1.2233,-1.2233,-1.2232,-1.2231,-1.2231,-1.223,-1.223,-1.2229,-1.2229,-1.2228,-1.2229,-1.2228,-1.2229,-1.223,-1.223,-1.223,-1.223,-1.2231,-1.2231,-1.2229,-1.2229,-1.2229,0,-1.2236,-1.2235,-1.2234,-1.2234,-1.2233,-1.2233,-1.2233,-1.2232,-1.2231,-1.2231,-1.2231,-1.223,-1.2229,-1.2229,-1.223,-1.2229,-1.223,-1.2229,-1.223,-1.223,-1.2231,-1.2231,-1.2231,-1.2229,-1.2229,-1.2229,-1.2229,0,-1.2234,-1.2234,-1.2233,-1.2233,-1.2233,-1.2232,-1.2232,-1.2232,-1.2232,-1.2232,-1.2232,-1.2231,-1.2231,-1.2231,-1.223,-1.2231,-1.2231,-1.2231,-1.223,-1.2231,-1.2231,-1.2232,-1.2229,-1.2229,-1.2229,-1.2229,0,0,-1.2232,-1.2233,-1.2232,-1.2233,-1.2233,-1.2232,-1.2232,-1.2232,-1.2232,-1.2232,-1.2232,-1.2232,-1.2232,-1.2232,-1.2232,-1.2232,-1.2233,-1.2232,-1.2232,-1.2232,-1.2235,-1.2235,-1.2235,-1.2233,-1.2233,-1.2233,-1.2235,0,-1.2231,-1.2231,-1.2231,-1.2231,-1.2231,-1.2232,-1.2232,-1.2232,-1.2232,-1.2232,-1.2233,-1.2233,-1.2232,-1.2232,-1.2233,-1.2233,-1.2234,-1.2233,-1.2234,-1.2234,-1.2233,-1.2235,-1.2235,-1.2236,-1.2235,-1.2235,-1.2235,0,-1.223,-1.223,-1.223,-1.2231,-1.2231,-1.2231,-1.2231,-1.2232,-1.2232,-1.2232,-1.2233,-1.2233,-1.2234,-1.2233,-1.2235,-1.2234,-1.2235,-1.2235,-1.2235,-1.2234,-1.2234,-1.2235,-1.2237,-1.2237,-1.2235,-1.2235,-1.2235,0,-1.2228,-1.2229,-1.2229,-1.2229,-1.223,-1.223,-1.2231,-1.2231,-1.2232,-1.2232,-1.2233,-1.2234,-1.2234,-1.2235,-1.2235,-1.2235,-1.2237,-1.2236,-1.2237,-1.2237,-1.2237,-1.2236,-1.2238,-1.2238,-1.2238,-1.2238,-1.2238,0,-1.2227,-1.2227,-1.2228,-1.2228,-1.2229,-1.223,-1.223,-1.2231,-1.2232,-1.2232,-1.2233,-1.2233,-1.2234,-1.2235,-1.2236,-1.2237,-1.2237,-1.2237,-1.2238,-1.2237,-1.2237,-1.2237,-1.2237,-1.2238,-1.2238,-1.2238,-1.2238,0,-1.2225,-1.2226,-1.2226,-1.2228,-1.2228,-1.2228,-1.223,-1.223,-1.2231,-1.2232,-1.2232,-1.2233,-1.2234,-1.2235,-1.2237,-1.2237,-1.2239,-1.2239,-1.2238,-1.2238,-1.2239,-1.2239,-1.224,-1.2241,-1.224,-1.224,-1.224,0,-1.2224,-1.2224,-1.2225,-1.2226,-1.2227,-1.2227,-1.2228,-1.2229,-1.223,-1.2232,-1.2232,-1.2233,-1.2234,-1.2237,-1.2238,-1.2239,-1.2239,-1.224,-1.2239,-1.2239,-1.2239,-1.2239,-1.2239,-1.224,-1.224,-1.224,-1.224,0,-1.2221,-1.2222,-1.2223,-1.2225,-1.2225,-1.2226,-1.2228,-1.2228,-1.223,-1.2231,-1.2232,-1.2233,-1.2235,-1.2237,-1.2238,-1.2239,-1.224,-1.224,-1.224,-1.224,-1.2239,-1.224,-1.2238,-1.224,-1.224,-1.224,-1.224,-1.224,-1.222,-1.222,-1.2222,-1.2223,-1.2224,-1.2226,-1.2226,-1.2228,-1.2229,-1.2231,-1.2232,-1.2233,-1.2235,-1.2238,-1.2239,-1.224,-1.224,-1.2241,-1.2241,-1.2241,-1.2241,-1.224,-1.2241,-1.2241,-1.2241,-1.2241,-1.2241,0,-1.2218,-1.2219,-1.222,-1.2222,-1.2223,-1.2224,-1.2226,-1.2227,-1.2228,-1.223,-1.2232,-1.2234,-1.2236,-1.2238,-1.224,-1.2241,-1.2241,-1.2241,-1.2241,-1.2241,-1.224,-1.224,-1.2241,-1.2241,-1.2241,-1.2241,-1.2241,-1.2241,-1.2217,-1.2218,-1.2219,-1.2221,-1.2222,-1.2224,-1.2225,-1.2226,-1.2228,-1.223,-1.2232,-1.2233,-1.2236,-1.2238,-1.224,-1.2241,-1.2241,-1.2241,-1.2242,-1.2241,-1.2241,-1.2241,-1.2241,-1.2242,-1.2242,-1.2243,-1.2243,-1.2243]}]]